Laconia, NH

9:56 PM EDT on July 22, 2017 (GMT -0400)
Laconia Municipal

Weather History for KLCI - March, 2014

Change the Weather History Date:

Thursday, March 13, 2014

  Actual Average Record
Temperature  
Mean Temperature 21 °F -  
Max Temperature 30 °F 38 °F 66 °F (2012)
Min Temperature 10 °F 18 °F -2 °F (1984)
Degree Days  
Heating Degree Days 44    
Moisture  
Dew Point 6 °F    
Average Humidity 64    
Maximum Humidity 86    
Minimum Humidity 45    
Precipitation  
Precipitation 0.03 in - - ()
Sea Level Pressure  
Sea Level Pressure 29.41 in    
Wind  
Wind Speed 13 mph (WNW)    
Max Wind Speed 23 mph    
Max Gust Speed 34 mph    
Visibility 6 miles    
Events      
Averages and records for this station are not official NWS values.
T = Trace of Precipitation, MM = Missing Value Source: NWS Daily Summary

Daily Weather History Graph

Daily Weather History Graph

Search for Another Location

Airport or City:

Trip Planner

Search our weather history database for the weather conditions in past years. The results will help you decide how hot, cold, wet, or windy it might be!

Date:

Astronomy

Mar. 13, 2014 Rise Set
Actual Time 7:01 AM EDT 6:49 PM EDT
Civil Twilight 6:32 AM EDT 7:18 PM EDT
Nautical Twilight 5:59 AM EDT 7:51 PM EDT
Astronomical Twilight 5:26 AM EDT 8:25 PM EDT
Moon 4:08 PM EDT (3/13) 5:10 AM EDT (3/13)
Length of Visible Light 12h 45m
Length of Day
11h 48m
Waxing Gibbous, 91% of the Moon is Illuminated
Mar 13
Waxing Gibbous
Mar 16
Full
Mar 23
Last Quarter
Mar 30
New
Apr 7
First Quarter

Hourly Weather History & Observations

Time (EDT) Temp. Windchill Dew Point Humidity Pressure Visibility Wind Dir Wind Speed Gust Speed Precip Events Conditions
12:15 AM 30.2 °F 19.3 °F 23.0 °F 75% 29.10 in 10.0 mi ENE 15.0 mph 27.6 mph N/A   Overcast
12:35 AM 28.4 °F 16.6 °F 21.2 °F 74% 29.08 in 10.0 mi ENE 16.1 mph 28.8 mph N/A   Overcast
12:55 AM 28.4 °F 15.1 °F 21.2 °F 74% 29.08 in 10.0 mi East 20.7 mph 31.1 mph N/A   Overcast
1:15 AM 28.4 °F 14.7 °F 19.4 °F 69% 29.07 in 10.0 mi ENE 21.9 mph 29.9 mph N/A   Overcast
1:35 AM 26.6 °F 13.4 °F 19.4 °F 74% 29.08 in 10.0 mi ENE 18.4 mph 27.6 mph N/A   Overcast
1:55 AM 26.6 °F 13.1 °F 19.4 °F 74% 29.09 in 10.0 mi ENE 19.6 mph 27.6 mph N/A   Overcast
2:15 AM 26.6 °F 14.7 °F 19.4 °F 74% 29.11 in 4.0 mi ENE 15.0 mph 23.0 mph N/A   Overcast
2:35 AM 26.6 °F 16.2 °F 21.2 °F 80% 29.09 in 1.2 mi ENE 11.5 mph - N/A   Overcast
2:55 AM 26.6 °F 22.6 °F 21.2 °F 80% 29.13 in 0.5 mi NNE 3.5 mph - N/A   Overcast
3:15 AM 24.8 °F 13.4 °F 21.2 °F 86% 29.08 in 1.5 mi NNW 12.7 mph 17.3 mph N/A   Overcast
3:35 AM 23.0 °F 11.1 °F 19.4 °F 86% 29.11 in 2.5 mi NW 12.7 mph - N/A   Overcast
3:55 AM 23.0 °F 11.7 °F 17.6 °F 80% 29.10 in 5.0 mi NW 11.5 mph - N/A   Mostly Cloudy
4:15 AM 21.2 °F 9.5 °F 17.6 °F 86% 29.12 in 7.0 mi NW 11.5 mph - N/A   Overcast
4:35 AM 21.2 °F 11.7 °F 15.8 °F 80% 29.11 in 2.5 mi NW 8.1 mph 19.6 mph N/A   Overcast
4:55 AM 19.4 °F 7.2 °F 15.8 °F 86% 29.14 in 1.5 mi WNW 11.5 mph 18.4 mph N/A   Overcast
5:15 AM 19.4 °F 8.6 °F 14.0 °F 80% 29.15 in 2.5 mi NW 9.2 mph 16.1 mph N/A   Mostly Cloudy
5:35 AM 19.4 °F 9.5 °F 12.2 °F 74% 29.16 in 9.0 mi WNW 8.1 mph - N/A   Scattered Clouds
5:55 AM 19.4 °F 8.6 °F 10.4 °F 68% 29.17 in 10.0 mi NW 9.2 mph 20.7 mph N/A   Mostly Cloudy
6:15 AM 19.4 °F 10.4 °F 10.4 °F 68% 29.18 in 10.0 mi WNW 6.9 mph - N/A   Overcast
6:35 AM 17.6 °F 5.0 °F 10.4 °F 73% 29.19 in 10.0 mi WNW 11.5 mph 19.6 mph N/A   Overcast
6:55 AM 17.6 °F 5.7 °F 10.4 °F 73% 29.18 in 10.0 mi WNW 10.4 mph 17.3 mph N/A   Overcast
7:15 AM 17.6 °F 5.0 °F 10.4 °F 73% 29.20 in 5.0 mi WNW 11.5 mph 18.4 mph N/A   Overcast
7:35 AM 15.8 °F 8.6 °F 10.4 °F 79% 29.21 in 5.0 mi WNW 4.6 mph 17.3 mph N/A   Overcast
7:55 AM 15.8 °F 2.1 °F 8.6 °F 73% 29.23 in 3.0 mi WNW 12.7 mph 19.6 mph N/A   Overcast
8:15 AM 15.8 °F 4.2 °F 8.6 °F 73% 29.24 in 3.0 mi WNW 9.2 mph 20.7 mph N/A   Overcast
8:35 AM 15.8 °F 7.2 °F 8.6 °F 73% 29.25 in 2.0 mi West 5.8 mph - N/A   Overcast
8:55 AM 14.0 °F -2.5 °F 8.6 °F 79% 29.27 in 1.8 mi WNW 17.3 mph 21.9 mph N/A   Overcast
9:15 AM 14.0 °F 3.9 °F 6.8 °F 73% 29.28 in 2.0 mi WNW 6.9 mph 21.9 mph N/A   Overcast
9:35 AM 12.2 °F 0.7 °F 6.8 °F 79% 29.29 in 1.8 mi West 8.1 mph 20.7 mph N/A   Overcast
9:55 AM 12.2 °F -2.5 °F 5.0 °F 73% 29.30 in 2.0 mi WNW 12.7 mph 24.2 mph N/A   Mostly Cloudy
10:15 AM 12.2 °F -3.7 °F 3.2 °F 67% 29.32 in 2.0 mi WNW 15.0 mph 24.2 mph N/A   Clear
10:35 AM 12.2 °F -3.7 °F 3.2 °F 67% 29.34 in 1.8 mi WNW 15.0 mph 25.3 mph N/A   Clear
10:55 AM 12.2 °F -1.0 °F 3.2 °F 67% 29.35 in 1.2 mi WNW 10.4 mph 28.8 mph N/A   Scattered Clouds
11:15 AM 12.2 °F -1.8 °F 3.2 °F 67% 29.36 in 1.0 mi West 11.5 mph 23.0 mph N/A   Overcast
11:35 AM 12.2 °F -0.2 °F 3.2 °F 67% 29.37 in 1.2 mi West 9.2 mph 31.1 mph N/A   Overcast
11:55 AM 12.2 °F -5.8 °F 3.2 °F 67% 29.39 in 1.8 mi WNW 19.6 mph 28.8 mph N/A   Mostly Cloudy
12:15 PM 12.2 °F -4.8 °F 1.4 °F 62% 29.40 in 2.5 mi NW 17.3 mph 32.2 mph N/A   Scattered Clouds
12:35 PM 12.2 °F -4.3 °F 1.4 °F 62% 29.41 in 1.5 mi WNW 16.1 mph 32.2 mph N/A   Overcast
12:55 PM 12.2 °F -5.8 °F 1.4 °F 62% 29.43 in 1.5 mi NW 19.6 mph 28.8 mph N/A   Overcast
1:15 PM 12.2 °F -4.3 °F 1.4 °F 62% 29.43 in 1.8 mi WNW 16.1 mph 29.9 mph N/A   Overcast
1:35 PM 14.0 °F 2.9 °F 1.4 °F 57% 29.44 in 3.0 mi WNW 8.1 mph 21.9 mph N/A   Mostly Cloudy
1:55 PM 14.0 °F -3.4 °F 1.4 °F 57% 29.45 in 4.0 mi WNW 19.6 mph 31.1 mph N/A   Mostly Cloudy
2:15 PM 15.8 °F -1.5 °F 1.4 °F 53% 29.45 in 1.5 mi NW 20.7 mph 34.5 mph N/A   Scattered Clouds
2:35 PM 15.8 °F -2.3 °F 1.4 °F 53% 29.46 in 3.0 mi NW 23.0 mph 34.5 mph N/A   Scattered Clouds
2:55 PM 15.8 °F -1.1 °F 1.4 °F 53% 29.47 in 8.0 mi WNW 19.6 mph 28.8 mph N/A   Mostly Cloudy
3:15 PM 17.6 °F 5.7 °F 3.2 °F 53% 29.48 in 7.0 mi NW 10.4 mph 27.6 mph N/A   Mostly Cloudy
3:35 PM 17.6 °F 2.7 °F 6.8 °F 63% 29.50 in 6.0 mi West 16.1 mph 25.3 mph N/A   Mostly Cloudy
3:55 PM 17.6 °F 1.7 °F 1.4 °F 49% 29.51 in 8.0 mi WNW 18.4 mph 25.3 mph N/A   Scattered Clouds
4:15 PM 15.8 °F 2.1 °F 1.4 °F 53% 29.52 in 7.0 mi West 12.7 mph 26.5 mph N/A   Partly Cloudy
4:35 PM 15.8 °F 0.9 °F 1.4 °F 53% 29.54 in 10.0 mi WNW 15.0 mph 25.3 mph N/A   Partly Cloudy
4:55 PM 14.0 °F -1.4 °F -0.4 °F 53% 29.56 in 8.0 mi West 15.0 mph 31.1 mph N/A   Partly Cloudy
5:15 PM 14.0 °F -1.4 °F -0.4 °F 53% 29.57 in 9.0 mi WNW 15.0 mph 26.5 mph N/A   Partly Cloudy
5:35 PM 14.0 °F 2.0 °F 1.4 °F 57% 29.59 in 10.0 mi WNW 9.2 mph 18.4 mph N/A   Partly Cloudy
5:55 PM 12.2 °F -3.7 °F -0.4 °F 57% 29.61 in 10.0 mi West 15.0 mph 21.9 mph N/A   Scattered Clouds
6:15 PM 12.2 °F -3.7 °F 1.4 °F 62% 29.63 in 10.0 mi WNW 15.0 mph 19.6 mph N/A   Partly Cloudy
6:35 PM 12.2 °F -2.5 °F -0.4 °F 57% 29.65 in 9.0 mi WNW 12.7 mph 24.2 mph N/A   Clear
6:55 PM 12.2 °F -3.1 °F -0.4 °F 57% 29.66 in 10.0 mi WNW 13.8 mph 21.9 mph N/A   Clear
7:15 PM 12.2 °F 1.7 °F -2.2 °F 53% 29.68 in 10.0 mi West 6.9 mph - N/A   Clear
7:35 PM 14.0 °F -3.0 °F -2.2 °F 49% 29.70 in 10.0 mi NW 18.4 mph 26.5 mph N/A   Clear
7:55 PM 14.0 °F -1.4 °F -2.2 °F 49% 29.72 in 10.0 mi WNW 15.0 mph 31.1 mph N/A   Clear
8:15 PM 14.0 °F 1.2 °F -2.2 °F 49% 29.74 in 10.0 mi WNW 10.4 mph 20.7 mph N/A   Clear
8:35 PM 14.0 °F 5.1 °F -2.2 °F 49% 29.75 in 10.0 mi West 5.8 mph 16.1 mph N/A   Clear
8:55 PM 14.0 °F 2.9 °F -2.2 °F 49% 29.77 in 10.0 mi West 8.1 mph - N/A   Clear
9:15 PM 14.0 °F 2.9 °F -2.2 °F 49% 29.79 in 10.0 mi West 8.1 mph - N/A   Clear
9:35 PM 12.2 °F -0.2 °F -2.2 °F 53% 29.80 in 10.0 mi West 9.2 mph 17.3 mph N/A   Clear
9:55 PM 12.2 °F 0.7 °F -2.2 °F 53% 29.82 in 10.0 mi West 8.1 mph - N/A   Clear
10:15 PM 12.2 °F 1.7 °F -2.2 °F 53% 29.82 in 10.0 mi West 6.9 mph - N/A   Clear
10:35 PM 12.2 °F 2.9 °F -4.0 °F 48% 29.84 in 10.0 mi West 5.8 mph - N/A   Clear
10:55 PM 12.2 °F -0.2 °F -4.0 °F 48% 29.84 in 10.0 mi West 9.2 mph 16.1 mph N/A   Clear
11:15 PM 12.2 °F -0.2 °F -5.8 °F 45% 29.85 in 10.0 mi WNW 9.2 mph 20.7 mph N/A   Clear
11:35 PM 12.2 °F -1.8 °F -5.8 °F 45% 29.85 in 10.0 mi West 11.5 mph 18.4 mph N/A   Clear
11:55 PM 10.4 °F -4.1 °F -5.8 °F 48% 29.86 in 10.0 mi WSW 11.5 mph 17.3 mph N/A   Clear